This is the latest recevied weather packets stored in our database for station/object K0QED. If no packets are shown the sender has not sent any weather packets the latest 10 day(s).
| Time | Temp. | Humidity | Pressure | Rain* | Wind** | Luminosity | Snow |
|---|---|---|---|---|---|---|---|
| 1787989947 | 15.56° C | 60% | 1027.9 hPa | 0 mm | - | 0 W/m² | - |
| 1787989645 | 15.56° C | 60% | 1028 hPa | 0 mm | - | 0 W/m² | - |
| 1787989341 | 16.11° C | 59% | 1027.9 hPa | 0 mm | - | 0 W/m² | - |
| 1787989039 | 16.11° C | 57% | 1028 hPa | 0 mm | - | 0 W/m² | - |
| 1787988739 | 16.11° C | 57% | 1028.1 hPa | 0 mm | - | 0 W/m² | - |
| 1787988436 | 16.67° C | 56% | 1028 hPa | 0 mm | - | 0 W/m² | - |
| 1787988135 | 16.11° C | 57% | 1028.2 hPa | 0 mm | - | 0 W/m² | - |
| 1787987832 | 16.11° C | 57% | 1028.2 hPa | 0 mm | - | 0 W/m² | - |
| 1787987532 | 16.67° C | 56% | 1028.2 hPa | 0 mm | - | 0 W/m² | - |
| 1787987227 | 16.67° C | 56% | 1028 hPa | 0 mm | - | 0 W/m² | - |
| 1787986923 | 16.67° C | 56% | 1028.1 hPa | 0 mm | - | 0 W/m² | - |
| 1787986621 | 16.67° C | 56% | 1028.2 hPa | 0 mm | - | 0 W/m² | - |
| 1787986321 | 16.67° C | 57% | 1028.2 hPa | 0 mm | - | 0 W/m² | - |
| 1787986015 | 16.11° C | 59% | 1028 hPa | 0 mm | - | 0 W/m² | - |
| 1787985714 | 16.67° C | 56% | 1028.2 hPa | 0 mm | - | 0 W/m² | - |
| 1787985404 | 16.11° C | 56% | 1027.9 hPa | 0 mm | - | 0 W/m² | - |
| 1787985103 | 16.11° C | 57% | 1028.1 hPa | 0 mm | - | 0 W/m² | - |
| 1787984802 | 16.11° C | 58% | 1028 hPa | 0 mm | - | 0 W/m² | - |
| 1787984498 | 16.11° C | 59% | 1027.9 hPa | 0 mm | - | 0 W/m² | - |
| 1787984196 | 16.11° C | 58% | 1027.9 hPa | 0 mm | - | 0 W/m² | - |
| 1787983891 | 16.11° C | 59% | 1027.9 hPa | 0 mm | - | 0 W/m² | - |
| 1787983587 | 16.11° C | 60% | 1028.5 hPa | 0 mm | - | 0 W/m² | - |
| 1787983287 | 16.11° C | 60% | 1028 hPa | 0 mm | - | 0 W/m² | - |
| 1787982982 | 15.56° C | 61% | 1028 hPa | 0 mm | - | 0 W/m² | - |
| 1787982678 | 15.56° C | 61% | 1027.9 hPa | 0 mm | - | 0 W/m² | - |
* Rain latest hour (hover to see other rain measurements)
** Current wind speed in m/s (hover to see current wind gust speed)